Date String (YYYY-MM-DD hh:mm:ss) UTC,Instrument flags,absolute air pressure of the measurement (hPa),sample flow rate (lpm),inlet stack bypass flow (lpm),air temperature of the measurement (°C),ambient temperature measured by the external sensor (°C),aerosol sample conditioner tube jacket temperature (°C),OPC LED temperature (°C),internal box temperature (°C),relative humidity of the measurement (%),span deviation,mass concentration of particles derived from Lorenz-Mie calculation of OPC scattering (μg/m³),mass concentration of particles derived from Lorenz-Mie calculation of OPC scattering (μg/m³),mass concentration of particles derived from Lorenz-Mie calculation of OPC scattering (μg/m³)
DateTimeUTC,F1_M11,P_M11,Q1_M11,Q2_M11,T1_M11,T2_M11,T3_M11,T4_M11,T5_M11,U1_M11,ZSPAN_M11,X0_M11,X2_M11,X1_M11
2023-09-02 22:00:00,SystemResetWarning,0832.5,5.00,000.00,027.5,025.8,000.0,035.7,029.3,28.2,0000.0,0014.35,0005.16,0003.93
2023-09-02 22:01:00,SystemResetWarning,0832.5,5.00,000.00,027.6,026.2,000.0,035.7,029.4,28.7,0000.0,0014.61,0005.17,0003.94
2023-09-02 22:02:00,SystemResetWarning,0832.5,4.99,000.00,027.6,026.2,000.0,035.7,029.4,28.8,0000.0,0014.71,0005.16,0003.95
2023-09-02 22:03:00,SystemResetWarning,0832.5,4.99,000.00,027.6,025.0,000.0,035.7,028.9,29.5,0000.0,0014.97,0005.17,0003.95
2023-09-02 22:04:00,SystemResetWarning,0832.5,5.01,000.00,027.4,024.2,000.0,035.6,028.7,28.5,0000.0,0015.39,0005.20,0003.96
2023-09-02 22:05:00,SystemResetWarning,0832.5,5.01,000.00,027.4,024.4,000.0,035.6,028.7,28.7,0000.0,0015.07,0005.17,0003.96
2023-09-02 22:06:00,SystemResetWarning,0832.5,5.00,000.00,027.4,024.8,000.0,035.6,028.8,29.7,0000.0,0015.15,0005.14,0003.96
2023-09-02 22:07:00,SystemResetWarning,0832.5,5.00,000.00,027.4,025.2,000.0,035.7,029.0,30.3,0000.0,0014.33,0005.10,0003.94
2023-09-02 22:08:00,SystemResetWarning,0832.5,5.00,000.00,027.5,025.7,000.0,035.7,029.2,30.0,0000.0,0015.08,0005.08,0003.94
2023-09-02 22:09:00,SystemResetWarning,0832.5,5.00,000.00,027.5,026.1,000.0,035.7,029.3,30.0,0000.0,0014.61,0005.04,0003.93
2023-09-02 22:10:00,SystemResetWarning,0832.5,5.00,000.00,027.6,026.4,000.0,035.8,029.4,29.5,0000.0,0014.75,0004.98,0003.93
2023-09-02 22:11:00,SystemResetWarning,0832.5,4.99,000.00,027.6,025.8,000.0,035.7,029.2,29.8,0000.0,0014.81,0004.95,0003.93
2023-09-02 22:12:00,SystemResetWarning,0832.4,5.00,000.00,027.5,024.6,000.0,035.7,028.7,29.3,0000.0,0015.10,0005.00,0003.93
2023-09-02 22:13:00,SystemResetWarning,0832.4,5.01,000.00,027.4,024.3,000.0,035.6,028.7,30.2,0000.0,0015.82,0005.04,0003.92
2023-09-02 22:14:00,SystemResetWarning,0832.4,5.00,000.00,027.4,024.6,000.0,035.7,028.7,30.7,0000.0,0015.79,0005.02,0003.93
2023-09-02 22:15:00,SystemResetWarning,0832.4,4.99,000.00,027.4,025.0,000.0,035.7,028.9,30.4,0000.0,0015.29,0004.98,0003.92
2023-09-02 22:16:00,SystemResetWarning,0832.4,5.00,000.00,027.4,025.4,000.0,035.7,029.1,29.7,0000.0,0015.54,0005.00,0003.92
2023-09-02 22:17:00,SystemResetWarning,0832.4,5.00,000.00,027.5,025.9,000.0,035.7,029.3,29.4,0000.0,0015.41,0005.00,0003.91
2023-09-02 22:18:00,SystemResetWarning,0832.4,5.00,000.00,027.6,026.2,000.0,035.8,029.4,27.9,0000.0,0016.05,0005.00,0003.92
2023-09-02 22:19:00,SystemResetWarning,0832.4,4.99,000.00,027.6,026.3,000.0,035.8,029.4,28.2,0000.0,0016.25,0004.99,0003.92
2023-09-02 22:20:00,SystemResetWarning,0832.3,4.98,000.00,027.6,025.1,000.0,035.7,029.0,29.1,0000.0,0016.06,0005.03,0003.94
2023-09-02 22:21:00,SystemResetWarning,0832.3,5.01,000.00,027.5,024.3,000.0,035.7,028.7,30.0,0000.0,0015.43,0005.06,0003.94
2023-09-02 22:22:00,SystemResetWarning,0832.3,5.01,000.00,027.4,024.4,000.0,035.6,028.8,30.4,0000.0,0014.82,0005.08,0003.94
2023-09-02 22:23:00,SystemResetWarning,0832.3,5.00,000.00,027.4,024.7,000.0,035.6,028.8,30.5,0000.0,0014.36,0005.06,0003.94
2023-09-02 22:24:00,SystemResetWarning,0832.3,5.01,000.00,027.4,025.2,000.0,035.7,029.0,29.9,0000.0,0013.66,0005.03,0003.94
2023-09-02 22:25:00,SystemResetWarning,0832.3,5.00,000.00,027.5,025.6,000.0,035.7,029.2,29.7,0000.0,0013.46,0005.01,0003.94
2023-09-02 22:26:00,SystemResetWarning,0832.3,5.00,000.00,027.5,026.0,000.0,035.7,029.3,29.6,0000.0,0013.75,0005.03,0003.94
2023-09-02 22:27:00,SystemResetWarning,0832.3,4.99,000.00,027.6,026.1,000.0,035.7,029.4,29.6,0000.0,0013.79,0005.01,0003.95
2023-09-02 22:28:00,SystemResetWarning,0832.3,4.99,000.00,027.6,025.0,000.0,035.7,028.9,30.0,0000.0,0014.43,0005.06,0003.96
2023-09-02 22:29:00,SystemResetWarning,0832.3,5.01,000.00,027.4,024.1,000.0,035.6,028.7,30.4,0000.0,0013.89,0005.09,0003.97
2023-09-02 22:30:00,SystemResetWarning,0832.2,5.00,000.00,027.4,024.3,000.0,035.6,028.7,30.8,0000.0,0013.73,0005.08,0003.97
2023-09-02 22:31:00,SystemResetWarning,0832.3,5.01,000.00,027.3,024.6,000.0,035.6,028.8,31.1,0000.0,0012.63,0005.01,0003.96
2023-09-02 22:32:00,SystemResetWarning,0832.3,5.00,000.00,027.4,025.1,000.0,035.7,028.9,31.1,0000.0,0012.41,0004.97,0003.96
2023-09-02 22:33:00,SystemResetWarning,0832.3,5.00,000.00,027.4,025.5,000.0,035.7,029.1,30.7,0000.0,0012.22,0004.95,0003.97
2023-09-02 22:34:00,SystemResetWarning,0832.3,5.01,000.00,027.5,026.0,000.0,035.7,029.3,30.5,0000.0,0012.62,0004.93,0003.97
2023-09-02 22:35:00,SystemResetWarning,0832.3,4.99,000.00,027.6,026.3,000.0,035.7,029.4,30.2,0000.0,0013.35,0004.91,0003.97
2023-09-02 22:36:00,SystemResetWarning,0832.3,4.98,000.00,027.6,025.8,000.0,035.7,029.2,30.0,0000.0,0013.23,0004.90,0003.95
2023-09-02 22:37:00,SystemResetWarning,0832.3,5.01,000.00,027.5,024.5,000.0,035.7,028.7,30.1,0000.0,0013.46,0004.89,0003.94
2023-09-02 22:38:00,SystemResetWarning,0832.3,5.00,000.00,027.4,024.1,000.0,035.6,028.6,30.3,0000.0,0014.35,0004.86,0003.93
2023-09-02 22:39:00,SystemResetWarning,0832.3,5.01,000.00,027.4,024.4,000.0,035.6,028.7,30.3,0000.0,0013.68,0004.79,0003.91
2023-09-02 22:40:00,SystemResetWarning,0832.3,5.00,000.00,027.3,024.8,000.0,035.6,028.8,30.5,0000.0,0013.45,0004.76,0003.90
2023-09-02 22:41:00,SystemResetWarning,0832.4,5.00,000.00,027.4,025.3,000.0,035.7,029.0,30.3,0000.0,0013.06,0004.80,0003.90
2023-09-02 22:42:00,SystemResetWarning,0832.4,5.00,000.00,027.5,025.7,000.0,035.7,029.2,30.0,0000.0,0013.12,0004.86,0003.90
2023-09-02 22:43:00,SystemResetWarning,0832.5,5.00,000.00,027.5,026.1,000.0,035.7,029.3,30.1,0000.0,0013.45,0004.87,0003.89
2023-09-02 22:44:00,SystemResetWarning,0832.5,5.00,000.00,027.6,026.2,000.0,035.7,029.4,29.9,0000.0,0013.80,0004.89,0003.89
2023-09-02 22:45:00,SystemResetWarning,0832.4,4.98,000.00,027.6,025.1,000.0,035.7,029.0,30.0,0000.0,0013.73,0004.91,0003.89
2023-09-02 22:46:00,SystemResetWarning,0832.5,5.01,000.00,027.4,024.1,000.0,035.6,028.7,30.0,0000.0,0013.06,0004.96,0003.90
2023-09-02 22:47:00,SystemResetWarning,0832.5,5.02,000.00,027.4,024.2,000.0,035.6,028.7,29.8,0000.0,0013.36,0004.99,0003.90
2023-09-02 22:48:00,SystemResetWarning,0832.5,5.00,000.00,027.3,024.6,000.0,035.6,028.8,29.5,0000.0,0013.50,0005.00,0003.90
2023-09-02 22:49:00,SystemResetWarning,0832.5,5.00,000.00,027.4,025.0,000.0,035.6,028.9,30.3,0000.0,0013.53,0005.06,0003.90
2023-09-02 22:50:00,SystemResetWarning,0832.5,4.99,000.00,027.4,025.5,000.0,035.7,029.1,30.9,0000.0,0014.54,0005.11,0003.90
2023-09-02 22:51:00,SystemResetWarning,0832.5,5.00,000.00,027.5,025.9,000.0,035.7,029.3,30.8,0000.0,0015.66,0005.14,0003.90
2023-09-02 22:52:00,SystemResetWarning,0832.5,5.00,000.00,027.6,026.3,000.0,035.7,029.4,30.6,0000.0,0015.77,0005.11,0003.90
2023-09-02 22:53:00,SystemResetWarning,0832.6,4.99,000.00,027.6,026.4,000.0,035.7,029.4,29.9,0000.0,0016.17,0005.07,0003.89
2023-09-02 22:54:00,SystemResetWarning,0832.5,4.99,000.00,027.6,025.4,000.0,035.7,029.1,30.3,0000.0,0016.26,0005.10,0003.89
2023-09-02 22:55:00,SystemResetWarning,0832.5,5.00,000.00,027.5,024.3,000.0,035.7,028.7,30.0,0000.0,0016.29,0005.04,0003.88
2023-09-02 22:56:00,SystemResetWarning,0832.6,5.01,000.00,027.4,024.3,000.0,035.6,028.7,30.2,0000.0,0016.27,0005.01,0003.87
2023-09-02 22:57:00,SystemResetWarning,0832.6,5.01,000.00,027.4,024.6,000.0,035.6,028.8,30.2,0000.0,0016.89,0004.97,0003.86
2023-09-02 22:58:00,SystemResetWarning,0832.6,4.99,000.00,027.4,025.0,000.0,035.7,028.9,30.0,0000.0,0016.75,0004.94,0003.88
2023-09-02 22:59:00,SystemResetWarning,0832.6,5.00,000.00,027.4,025.5,000.0,035.7,029.1,29.9,0000.0,0016.17,0004.97,0003.89
